Skip Page Navigation
NASA JPL Caltech
NASA Logo - Jet Propulsion Laboratory + View the NASA Portal
+ Center for Near-Earth Object Studies
JPL Home Earth Solar System Stars & Galaxies Technology
JPL Solar System Dynamics
BODIES ORBITS EPHEMERIDES TOOLS PHYSICAL DATA DISCOVERY FAQ SITE MAP
IMPORTANT: The SSD Announcement email list is now available. Major changes are coming in the near future, including possible hostname and/or URL changes. To be notified of such changes, subscribe to this email list.

Please visit this page for more details.


JPL Small-Body Database Browser
Search: [ help ]  
37410 (2001 XQ118)
Classification: Main-belt Asteroid          SPK-ID: 2037410
Ephemeris | Orbit Diagram | Orbital Elements | Mission Design | Physical Parameters | Discovery Circumstances ]

[ show orbit diagram ]
Orbital Elements at Epoch 2458600.5 (2019-Apr-27.0) TDB
Reference: JPL 16 (heliocentric ecliptic J2000)
 Element Value Uncertainty (1-sigma)   Units 
e .1814330648145732 4.8359e-08  
a 2.329770682813511 9.2967e-09 au
q 1.907073247515515 1.1168e-07 au
i 5.719722455615085 4.3679e-06 deg
node 79.99841595025623 4.9935e-05 deg
peri 263.7275058868959 5.14e-05 deg
M 79.43022796608388 1.3282e-05 deg
tp 2458313.916291063642
(2018-Jul-14.41629106)
4.7772e-05 TDB
period 1298.877491087418
3.56
7.7746e-06
2.129e-08
d
yr
n .2771623978937448 1.659e-09 deg/d
Q 2.752468118111508 1.0983e-08 au
  Orbit Determination Parameters
   # obs. used (total)      1065  
   data-arc span      9233 days (25.28 yr)  
   first obs. used      1993-10-09  
   last obs. used      2019-01-19  
   planetary ephem.      DE431  
   SB-pert. ephem.      SB431-N16  
   condition code      0  
   norm. resid. RMS      .54283  
   source      ORB  
   producer      Otto Matic  
   solution date      2019-Jul-13 01:56:51  

Additional Information
 Earth MOID = .90872 au 
 Jupiter MOID = 2.6589 au 
 T_jup = 3.543 
[ show covariance matrix ]

Ephemeris | Orbit Diagram | Orbital Elements | Mission Design | Physical Parameters | Discovery Circumstances ]

Physical Parameter Table
Parameter Symbol Value Units Sigma Reference Notes
absolute magnitude H 15.1   n/a MPO459126  
diameter diameter 2.305 km 0.155 urn:nasa:pds:neowise_diameters_albedos::2.0[mainbelt] (http://adsabs.harvard.edu/abs/2011ApJ...741...68M)  
geometric albedo albedo 0.303   0.003 urn:nasa:pds:neowise_diameters_albedos::2.0[mainbelt] (http://adsabs.harvard.edu/abs/2011ApJ...741...68M)  

37410 (2001 XQ118)          Discovered 2001-Dec-13 by LINEAR at Socorro
Reference: 20020227/Numbers.arcLast Updated: 2004-04-19

Alternate Designations
 2001 XQ118 = 1993 TF29 = 2000 NE17 
Ephemeris | Orbit Diagram | Orbital Elements | Mission Design | Physical Parameters | Discovery Circumstances ]
ABOUT SSD CREDITS/AWARDS PRIVACY/COPYRIGHT GLOSSARY LINKS
FirstGov 2020-Jan-24 14:07 UT
(server date/time)  
NASA Home Page
Site Manager:   Ryan S. Park
Webmaster  Alan B. Chamberlin